sat.trackr.live / text

‹ back to catalog

STARLINK-3156

NORAD 49458 · 2021-104BC

PAYLOAD ACTIVE UNKNOWN

§ Identity

Operator
Country
US
Launch date
2021-11-13
Launch site
AFETR
Launch vehicle
Mass (kg)
RCS (m²)

Purposes: comms

External: N2YO · Heavens-Above · Gunter

§ Orbital elements

Epoch: 2026-05-24T15:25:00.484608Z

Period
95.44 min
Inclination
53.2147°
Eccentricity
0.0001197
Mean motion
15.08839298 rev/d
Perigee alt
538.9 km
Apogee alt
540.6 km
Semi-major
6,917.9 km
B*
5.4556e-5
RAAN
238.1560°
Arg perigee
84.2942°
Mean anomaly
275.8187°
Rev number
25,024

§ Raw data

STARLINK-31561 49458U 21104BC  26144.64236672  .00000580  00000+0  54556-4 0  99922 49458  53.2147 238.1560 0001197  84.2942 275.8187 15.08839298250240

JSON: /api/v1/satellites/49458 · /tle

For live sub-satellite position, see the globe view (requires WebGL).

§ Visibility from observer

Set your observer location to see the next 7 days of passes ≥ 10°. The values pass through the URL so the page stays shareable.

No JS? Fill the form by hand. The geolocation button needs JavaScript.